Tracking 19170 objects as of 22-May-2018
HD Live streaming from Space Station
objects crossing your sky now

INTELSAT 903

Track INTELSAT 903 now!
INTELSAT 903 is classified as:


NORAD ID: 27403
Int'l Code: 2002-016A
Perigee: 35,782.2 km
Apogee: 35,806.2 km
Inclination: 0.6 °
Period: 1,436.1 minutes
Semi major axis: 42165 km
RCS: 28.8022 m2 (large)
Launch date: March 30, 2002
Source: International Telecommunications Satellite Organization (ITSO)
Launch site: TYURATAM MISSILE AND SPACE COMPLEX (TTMTR)

76 C-band, 22 Ku-band, broadcasting, business services, direct-to-home TV broadcasting, telecommunications, VSAT networks; Atlantic Ocean region.
aabbcc
Your satellite tracking list
Your tracking list is empty




NASA's NSSDC Master Catalog

Two Line Element Set (TLE):
1 27403U 02016A   18142.33637312 -.00000241 +00000-0 +00000-0 0  9997
2 27403 000.5733 094.2821 0002850 344.0343 251.1892 01.00270174016117
Source of the keplerian elements: AFSPC